Location: Pcim
(49.7500°N, 19.9670°E)
Time: 10:02:04
(UTC+02:00)

EO-79 - Pass Details

Date: 26 April 2024
Orbit: 563 x 574 km, 98.0° (Epoch: 20 May)

Event Time Altitude Azimuth Distance (km) Brightness Sun altitude
Rises 03:09:07 0° 23° (NNE) 2,802 ? -18.4°
Reaches altitude 10° 03:11:31 10° 35° (NE) 1,899 ? -18.2°
Maximum altitude 03:15:05 28° 95° (E) 1,095 ? -17.8°
Drops below altitude 10° 03:18:39 10° 156° (SSE) 1,888 ? -17.5°
Enters shadow 03:18:40 10° 156° (SSE) 1,893 ? -17.5°
